Location: Saint-Palais-sur-Mer
(45.6429°N, 1.0859°W)
Time: 12:24:39
(UTC+01:00)

Tiangong - Visible Passes

Search period start: 16 January 2026 00:00
Search period end: 26 January 2026 00:00
Orbit: 378 x 394 km, 41.5° (Epoch: 16 January)

Date Brightness Start Highest point End Pass type
(mag) Time Alt. Az. Time Alt. Az. Time Alt. Az.
17 Jan 1.0 07:10:32 10° S 07:11:44 12° SSE 07:12:58 10° SE visible
18 Jan 0.1 07:46:16 10° SW 07:48:55 24° SSE 07:51:34 10° ESE visible
19 Jan 0.4 06:48:06 12° SSW 06:49:50 17° SSE 06:52:03 10° ESE visible
20 Jan 1.3 05:51:58 10° SE 05:51:58 10° SE 05:52:04 10° SE visible
20 Jan -0.5 07:24:13 10° SW 07:27:02 31° SSE 07:29:55 10° ESE visible
21 Jan -0.2 06:27:55 24° SSE 06:27:55 24° SSE 06:30:31 10° ESE visible
21 Jan -0.9 08:01:20 10° WSW 08:04:21 38° S 08:07:21 10° ESE visible
22 Jan -0.9 07:03:44 24° SW 07:05:06 36° S 07:08:04 10° ESE visible
23 Jan 0.4 06:07:14 21° ESE 06:07:14 21° ESE 06:08:42 10° ESE visible
23 Jan -1.0 07:39:28 10° WSW 07:42:21 36° S 07:45:21 10° ESE visible
24 Jan -1.2 06:42:54 38° S 06:43:04 38° S 06:46:04 10° ESE visible
25 Jan 1.2 05:46:17 13° ESE 05:46:17 13° ESE 05:46:41 10° ESE visible
25 Jan -0.8 07:18:30 18° WSW 07:20:15 31° SSW 07:23:08 10° SE visible
